Home > Weather > Parma > Past weeks

Flag for Italy Past Weather in Parma, Italy — Yesterday and Last 2 Weeks

Now
82 °F

Sunny.


Feels Like: 82 °F
Forecast: 62 / 89 °F
Wind: 5 mph from East

Location: Parma

Current Time: Aug 25, 2016 at 1:42:48 PM

Latest Report: Aug 25, 2016 at 12:50 PM


Visibility: 10 mi

Pressure: 30.12 "Hg

Humidity: 45%

Dew Point: 59 °F

Location of ParmaLocation

Past Weather in Parma — Graph

°F

Parma Temperature Yesterday

Maximum temperature yesterday: 86 °F (at 2:50 PM)
Minimum temperature yesterday: 61 °F (at 7:00 AM)
Average temperature yesterday: 78 °F

High & Low Weather Summary for the Past Weeks

 TemperatureHumidityPressure
High91 °F (Aug 15, 4:50 PM)100% (Aug 21, 6:00 AM)30.30 "Hg (Aug 21, 6:00 AM)
Low55 °F (Aug 12, 7:00 AM)29% (Aug 23, 2:50 PM)29.62 "Hg (Aug 18, 6:50 PM)
Average77 °F56%30.05 "Hg
* Reported Aug 10 11:50 AM — Aug 25 11:50 AM, Parma, Weather by CustomWeather, © 2016

Note: Actual official high and low records may vary slightly from our data, if they occured in-between our weather recording intervals... More about our weather records

Advertising

Parma Weather History for the Previous 24 Hours

Scroll right to see more
 ConditionsComfort  
Time TempWeatherWind HumidityBarometerVisibility
11:50 AM
Thu, Aug 25
81 °FSunny.5 mph51%30.15 "Hg10 mi
10:50 AM79 °FSunny.5 mph54%30.15 "Hg10 mi
9:50 AM75 °FSunny.3 mph57%30.15 "Hg10 mi
8:50 AM70 °FSunny.1 mph69%30.15 "Hg10 mi
7:50 AM66 °FSunny.2 mph78%30.15 "Hg10 mi
7:00 AM63 °FClear.1 mph83%30.15 "Hg10 mi
10:50 PM
Wed, Aug 24
75 °FClear.5 mph54%30.15 "Hg10 mi
9:50 PM77 °FClear.6 mph51%30.15 "Hg10 mi
8:50 PM79 °FSunny.5 mph48%30.12 "Hg10 mi
7:50 PM82 °FSunny.5 mph42%30.12 "Hg10 mi
6:50 PM84 °FSunny.8 mph40%30.12 "Hg10 mi
5:50 PM86 °FSunny.7 mph35%30.12 "Hg10 mi
4:50 PM86 °FSunny.6 mph38%30.15 "Hg10 mi
3:50 PM86 °FSunny.8 mph35%30.15 "Hg10 mi
2:50 PM86 °FSunny.3 mph38%30.18 "Hg10 mi
1:50 PM84 °FSunny.6 mph40%30.18 "Hg10 mi
Weather by CustomWeather, © 2016

See weather overviewHow to use our weather pages